Current Version              Previous Version:    01  02  03  04  05  06  07  08  09  10  11  12  13  14  15  16  17  18  19  20  21  22  23  24  25  26  27  28  29  30  
   31  32  33  34  35  36  37  38  39  40  41  42  43  44  45  46  47  48  49  50  51  52  53  54  55  56  57  58  59  60  

[Printable]
603
ASUS44 KLUB 190601
RWRTX
WEST TEXAS WEATHER ROUNDUP
NATIONAL WEATHER SERVICE LUBBOCK TX
1200 AM CST FRI DEC 19 2014

NOTE: "FAIR" INDICATES FEW OR NO CLOUDS BELOW 12,000 FEET WITH NO
SIGNIFICANT WEATHER AND/OR OBSTRUCTIONS TO VISIBILITY.

TXZ004-006>008-010-012-014-016-OKZ002-190700-
TEXAS PANHANDLE/OKLAHOMA PANHANDLE

CITY           SKY/WX    TMP DP  RH WIND       PRES   REMARKS
AMARILLO       CLOUDY    35  33  92 E5        30.17R WCI  31
BORGER         CLOUDY    37  31  78 S6        30.17S WCI  32
CANADIAN       CLOUDY    39  38  97 E6        30.19S FOG     WCI  34
DALHART        CLOUDY    31  28  89 CALM      30.15S FOG
DUMAS          CLOUDY    33  30  90 S5        30.16R WCI  28
GUYMON         CLOUDY    37  32  82 CALM      30.16R
HEREFORD       CLOUDY    37  35  93 SE7       30.16S WCI  32
$$

TXZ026-029-035-045-048-190700-
SOUTHERN PANHANDLE/SOUTH PLAINS/ROLLING PLAINS

CITY           SKY/WX    TMP DP  RH WIND       PRES   REMARKS
CHILDRESS      LGT RAIN  42  37  82 E7        30.19F
LUBBOCK        CLOUDY    39  36  89 E6        30.13F WCI  35
$$

TXZ052-054-060>062-072-078-127-140-154-169-190700-
PERMIAN BASIN/CONCHO VALLEY/BIG COUNTRY/EDWARDS PLATEAU

CITY           SKY/WX    TMP DP  RH WIND       PRES   REMARKS
ABILENE        CLOUDY    44  39  82 NE7       30.16R
JUNCTION       CLOUDY    56  52  86 E9        30.07F
MIDLAND        CLOUDY    48  36  63 E10       30.10R
ODESSA         CLOUDY    51  33  50 NE9       30.11R
SAN ANGELO     CLOUDY    50  43  77 NE12      30.10S
WINK           CLOUDY    56  35  45 NW15G22   30.10R
$$

TXZ055-058-074-075-080-082-190700-
FAR WEST/SOUTHWEST MOUNTAINS/TRANS PECOS

CITY           SKY/WX    TMP DP  RH WIND       PRES   REMARKS
ALPINE         CLOUDY    42  30  62 CALM      30.18F
DRYDEN           N/A     59  39  47 N6        30.05S
EL PASO        MOCLDY    47  37  68 W12       30.14R
FORT STOCKTON  MOCLDY    47  31  53 SW12      30.10S
MARFA          CLOUDY    37  27  65 N6        30.15S WCI  33
$$

TXZ014-016-019-021>030-083-190700
TEXAS TECH WEST TEXAS MESONET/TEXAS PANHANDLE/NORTHERN SOUTH PLAINS

CITY           SKY/WX    TMP DP  RH WIND       PRES   REMARKS
ABERNATHY 5ENE   N/A     37  36  94 E8        30.15F WCI  31
AMARILLO 9NNE    N/A     35  32  88 SE8       30.17R WCI  29
AMARILLO 7SSE    N/A     35  33  91 E5        30.17R WCI  31
AMHERST 1NE      N/A     36  35  95 E7        30.14R WCI  31
BOOTLEG 11WNW    N/A     33  31  94 SE9       30.14S WCI  25
CANADIAN 6E      N/A     36  36  99 E5        30.18R WCI  32
CAPROCK CYN SP   N/A     39  37  91 E3        30.18R
CHILDRESS 2NNE   N/A     40  37  90 E8        30.18F WCI  35
CLARENDON 2WSW   N/A     38  35  85 E3        30.17S
CLAUDE 12SW      N/A     35  33  94 E6        30.15F WCI  30
DIMMITT 2NE      N/A     35  33  94 E7        30.14S WCI  29
FLOYDADA 2NNE    N/A     37  35  92 NE9       30.13F WCI  30
FRIONA 2NE       N/A     35  33  93 SE2       30.16R
GOODLETT 3W      N/A     42  38  88 N3        30.20S
HART 3N          N/A     36  35  95 E9        30.13F WCI  29
HEREFORD 2NW     N/A     35  33  90 E5        30.15S WCI  31
MCLEAN 1E        N/A     37  36  94 SE3       30.16S
MEMPHIS 1NE      N/A     41  37  87 E5        30.19S
MULESHOE 2SSW    N/A     36  35  94 E2        30.15S
OLTON 6S         N/A     37  35  90 E9        30.13F WCI  30
PALO DURO SP     N/A     36  33  88 CALM      30.17S
PAMPA 2E         N/A     36  35  93 S3        30.16S
PLAINVIEW 1S     N/A     37  35  92 E7        30.13F WCI  32
SILVERTON 7ESE   N/A     37  36  93 E7        30.16S WCI  32
TULIA 2ENE       N/A     36  35  97 E6        30.15S WCI  31
TURKEY 2WSW      N/A     40  38  91 E6        30.17S
UMBARGER 3NNE    N/A     34  32  92 E5        30.16S WCI  30
$$

TXZ033>036-039>041-045>048-190700
TEXAS TECH WEST TEXAS MESONET/SOUTH PLAINS

CITY           SKY/WX    TMP DP  RH WIND       PRES   REMARKS
AIKEN 3WSW       N/A     37  35  90 E9        30.15F WCI  31
ANDREWS 2NE      N/A     44  36  71 NE9       30.13R
ANTON 6SSW       N/A     38  36  91 E9        30.14S WCI  32
BROWNFIELD 2S    N/A     38  35  88 NE7       30.14R WCI  33
DENVR CTY 7WNW   N/A     42  38  86 SE3       30.13R
GAIL 2ESE        N/A     40  36  87 NE10      30.14R WCI  33
LAMESA 2SE       N/A     38  36  91 NE6       30.13S WCI  34
LEVELLAND 4S     N/A     39  33  81 E8        30.13S WCI  33
LUBBOCK 3WNW     N/A     39  36  89 E6        30.15S
MORTON 1ENE      N/A     38  36  94 E7        30.12S WCI  32
ODONNELL 1N      N/A     38  35  89 NE12      30.14R WCI  30
PLAINS 3N        N/A     40  38  92 E7        30.12S
RALLS 1SE        N/A     38  36  90 E8        30.14F WCI  32
REESE CENTER     N/A     38  35  90 E5        30.14S WCI  34
SEAGRAVES 1SW    N/A     41  36  82 E7        30.13S
SEMINOLE 2NNE    N/A     42  35  75 NE8       30.14R
SLATON 2NE       N/A     39  36  90 NE6       30.15R WCI  35
SNYDER 3E        N/A     39  36  91 NE12      30.12F WCI  32
SUNDOWN 8SW      N/A     39  35  86 E7        30.12S WCI  34
TAHOKA 3NNE      N/A     38  36  90 NE9       30.14R WCI  32
WOLFFORTH 6SSW   N/A     39  38  99 NE6       30.14F WCI  34
$$

TXZ031-032-036>038-042>044-190700-
TEXAS TECH WEST TEXAS MESONET/ROLLING PLAINS

CITY           SKY/WX    TMP DP  RH WIND       PRES   REMARKS
ASPERMONT 3NE    N/A     42  38  83 NE6       30.18S
FLUVANNA 3WNW    N/A     38  35  89 NE13      30.13S WCI  31
GRAHAM 5SSW      N/A     38  35  89 E12       30.14R WCI  31
GUTHRIE 10WSW    N/A     41  37  84 NE5       30.17S
HASKELL 1NW      N/A     42  37  81 NE9       30.16F
JAYTON 1SSE      N/A     41  37  86 NE6       30.17S
KNOX CITY 3NW    N/A     44  37  79 NE7       30.19S
LK A HENRY 1NW   N/A     40  37  87 E8        30.15S WCI  35
NORTHFIELD 1S    N/A     41  39  93 E2        30.19R
ODELL 4ENE       N/A     42  40  93 N8        30.21F
PADUCAH 10SW     N/A     41  37  87 NE8       30.18S
POST 1NE         N/A     40  36  86 NE8       30.16R WCI  34
RRING SPRGS 3N   N/A     39  37  94 N3        30.17S
SEYMOUR 3NW      N/A     43  41  91 N8        30.18F
SPUR 1W          N/A     40  36  84 NE5       30.16S
WHITE RVR 6NE    N/A     39  35  85 NE6       30.16R WCI  35
$$

TXZ052-054-060>062-072-078-127-140-154-169-190700-
TEXAS TECH WEST TEXAS MESONET/PERMIAN BASIN/
CONCHO VALLEY/BIG COUNTRY/EDWARDS PLATEAU

CITY           SKY/WX    TMP DP  RH WIND       PRES   REMARKS
COYANOSA 2N      N/A     49  33  54 SW5       30.10R
JUNCTION 1SSW    N/A     56  53  90 NE6       30.08F
MERTZON 3NNE     N/A     49  43  80 NE7       30.11F
SAN ANGELO 7NW   N/A     47  41  77 NE10      30.10F
STRLNG CT 4WSW   N/A     48  40  73 E6        30.12R
ST LAWRNCE 5SW   N/A     50  36  59 E12       30.10R
SWEETWATR 11SW   N/A     40  38  93 NE17      30.13S WCI  31
WALL 1E          N/A     49  43  80 NE12      30.11S
$$

TXZ055-058-074-075-080-082-190700-
TEXAS TECH WEST TEXAS MESONET/FAR WEST/SOUTHWEST MOUNTAINS/TRANS PECOS

CITY           SKY/WX    TMP DP  RH WIND       PRES   REMARKS
PRSMN GAP BBNP   N/A     56  33  42 N9        30.08R
$$